Weather History for Vero Beach, FL

Change the Weather History Date:

Saturday, September 1, 2012

  Actual Average Record
Temperature  
Mean Temperature 81 °F 81 °F  
Max Temperature 87 °F 89 °F 94 °F (1989)
Min Temperature 75 °F 74 °F 69 °F (1972)
Degree Days  
Heating Degree Days 0 0  
Month to date heating degree days 0 0  
Since 1 July heating degree days 0 0  
Cooling Degree Days 16 16  
Month to date cooling degree days 16 16  
Year to date cooling degree days 2549 2314  
Growing Degree Days 31 (Base 50)    
Moisture  
Dew Point 73 °F    
Average Humidity 78    
Maximum Humidity 94    
Minimum Humidity 61    
Precipitation  
Precipitation 0.00 in 0.24 in 2.45 in (1989)
Month to date precipitation 0.00 0.24  
Year to date precipitation 32.19 34.94  
Sea Level Pressure  
Sea Level Pressure 30.11 in    
Wind  
Wind Speed 8 mph (NE)    
Max Wind Speed 16 mph    
Max Gust Speed 20 mph    
Visibility 10 miles    
Events      
T = Trace of Precipitation, MM = Missing Value Source: NWS Daily Summary

Daily Weather History Graph

Daily Weather History Graph

Search for Another Location

Airport:

Trip Planner

Search our weather history database for the weather conditions in past years. The results will help you decide how hot, cold, wet, or windy it might be!

Date:

Astronomy

Sep. 01, 2012 Rise Set
Actual Time 7:00 AM EDT 7:41 PM EDT
Civil Twilight 6:36 AM EDT 8:05 PM EDT
Nautical Twilight 6:09 AM EDT 8:33 PM EDT
Astronomical Twilight 5:40 AM EDT 9:01 PM EDT
Moon 8:11 PM EDT (9/1) 7:55 AM EDT (9/1)
Length of Visible Light 13h 28m
Length of Day
12h 41m
Full, 99% of the Moon is Illuminated
Sep 1
Full
Sep 8
Last Quarter
Sep 15
New
Sep 22
First Quarter
Sep 29
Full

Hourly Weather History & Observations

Time (EDT) Temp. Heat Index Dew Point Humidity Pressure Visibility Wind Dir Wind Speed Gust Speed Precip Events Conditions
12:53 AM 79.0 °F - 75.0 °F 88% 30.12 in 10.0 mi NE 4.6 mph - N/A   Clear
1:53 AM 79.0 °F - 75.0 °F 88% 30.11 in 10.0 mi NE 4.6 mph - N/A   Clear
2:53 AM 79.0 °F - 75.0 °F 88% 30.10 in 10.0 mi NE 3.5 mph - N/A   Scattered Clouds
3:53 AM 78.1 °F - 75.0 °F 90% 30.10 in 10.0 mi Calm Calm - N/A   Clear
4:53 AM 75.0 °F - 73.0 °F 94% 30.09 in 10.0 mi Calm Calm - N/A   Clear
5:53 AM 75.9 °F - 73.9 °F 94% 30.10 in 10.0 mi North 3.5 mph - N/A   Partly Cloudy
6:53 AM 75.9 °F - 73.9 °F 94% 30.11 in 10.0 mi NE 3.5 mph - N/A   Clear
7:53 AM 80.1 °F 85.4 °F 75.9 °F 87% 30.12 in 10.0 mi North 3.5 mph - N/A   Partly Cloudy
8:53 AM 82.9 °F 90.8 °F 75.9 °F 79% 30.13 in 10.0 mi NE 9.2 mph - N/A   Scattered Clouds
9:53 AM 84.0 °F 91.2 °F 73.9 °F 72% 30.14 in 10.0 mi NE 12.7 mph - N/A   Scattered Clouds
10:53 AM 86.0 °F 93.8 °F 73.9 °F 67% 30.16 in 10.0 mi NE 11.5 mph 16.1 mph N/A   Scattered Clouds
11:53 AM 86.0 °F 92.2 °F 72.0 °F 63% 30.16 in 10.0 mi NNE 11.5 mph - N/A   Scattered Clouds
12:53 PM 86.0 °F 93.0 °F 73.0 °F 65% 30.15 in 10.0 mi NNE 11.5 mph - N/A   Scattered Clouds
1:26 PM 86.0 °F 93.4 °F 73.4 °F 66% 30.14 in 10.0 mi NNE 10.4 mph - N/A   Mostly Cloudy
1:53 PM 86.0 °F 93.0 °F 73.0 °F 65% 30.13 in 10.0 mi ENE 12.7 mph - N/A   Mostly Cloudy
2:53 PM 87.1 °F 94.5 °F 73.0 °F 63% 30.12 in 10.0 mi NNE 15.0 mph - N/A   Mostly Cloudy
3:00 PM 87.8 °F 95.6 °F 73.4 °F 62% 30.11 in 10.0 mi NNE 12.7 mph - N/A   Scattered Clouds
3:07 PM 86.0 °F 93.4 °F 73.4 °F 66% 30.11 in 10.0 mi NE 11.5 mph 18.4 mph N/A   Mostly Cloudy
3:53 PM 86.0 °F 93.0 °F 73.0 °F 65% 30.09 in 10.0 mi NNE 12.7 mph 18.4 mph N/A   Scattered Clouds
4:53 PM 84.9 °F 92.1 °F 73.9 °F 69% 30.07 in 10.0 mi NNE 11.5 mph - N/A   Scattered Clouds
5:21 PM 86.0 °F 95.1 °F 75.2 °F 70% 30.07 in 10.0 mi NNE 12.7 mph - N/A   Mostly Cloudy
5:53 PM 84.0 °F 91.2 °F 73.9 °F 72% 30.07 in 10.0 mi NNE 11.5 mph - N/A   Scattered Clouds
6:53 PM 82.4 °F 87.2 °F 71.6 °F 70% 30.07 in 10.0 mi NE 10.4 mph - N/A   Partly Cloudy
7:53 PM 81.0 °F 85.2 °F 72.0 °F 74% 30.07 in 10.0 mi NE 8.1 mph - N/A   Clear
8:53 PM 80.1 °F 83.8 °F 72.0 °F 76% 30.08 in 10.0 mi ENE 5.8 mph - N/A   Clear
9:53 PM 79.0 °F - 70.0 °F 74% 30.09 in 10.0 mi NE 5.8 mph - N/A   Clear
10:53 PM 78.1 °F - 68.0 °F 71% 30.09 in 10.0 mi ENE 5.8 mph - N/A   Clear
11:53 PM 77.0 °F - 68.0 °F 74% 30.09 in 10.0 mi NE 5.8 mph - N/A   Clear